GW3962 Weather Reports


Display with metric or nautical units.
time (UTC)temp
F
wind
direction
speed
MPH
gust
MPH
rain 1hr
in
rain 24hr
in
rain mn
in
humidity
%
barometer
mb
20260906183913 90 310 1.0 1.0 0.00 0.00 0.00 56 1014.8
20260906183409 91 305 2.0 2.0 0.00 0.00 0.00 56 1014.9
20260906182905 91 317 0.0 0.0 0.00 0.00 0.00 56 1014.9
20260906182400 92 47 3.0 3.0 0.00 0.00 0.00 54 1014.8
20260906181855 91 321 1.0 1.0 0.00 0.00 0.00 56 1015.0
20260906181351 89 314 0.0 1.0 0.00 0.00 0.00 57 1014.8
20260906180847 88 35 3.0 5.0 0.00 0.00 0.00 60 1015.1
20260906180341 89 149 3.0 5.0 0.00 0.00 0.00 60 1015.4
20260906175839 88 331 3.0 5.0 0.00 0.00 0.00 59 1015.3
20260906175334 88 328 5.0 7.0 0.00 0.00 0.00 60 1015.7
20260906174833 89 266 3.0 3.0 0.00 0.00 0.00 59 1015.6
20260906174328 90 310 1.0 2.0 0.00 0.00 0.00 58 1015.7
20260906173822 92 321 0.0 0.0 0.00 0.00 0.00 53 1015.7
20260906173318 90 297 2.0 2.0 0.00 0.00 0.00 55 1015.9
20260906172817 89 296 2.0 3.0 0.00 0.00 0.00 55 1015.9
20260906172313 90 66 1.0 2.0 0.00 0.00 0.00 56 1016.1
20260906171808 91 222 2.0 2.0 0.00 0.00 0.00 56 1016.3
20260906171303 89 228 2.0 3.0 0.00 0.00 0.00 62 1016.3
20260906170758 91 49 2.0 3.0 0.00 0.00 0.00 61 1016.3
20260906170254 91 358 0.0 1.0 0.00 0.00 0.00 60 1016.5
20260906165749 89 336 1.0 1.0 0.00 0.00 0.00 61 1016.5
20260906165244 87 330 2.0 2.0 0.00 0.00 0.00 66 1016.5
20260906164743 87 4 2.0 2.0 0.00 0.00 0.00 67 1016.6
20260906164238 87 305 0.0 1.0 0.00 0.00 0.00 68 1016.6
20260906163734 86 262 1.0 1.0 0.00 0.00 0.00 68 1016.7
20260906163231 86 296 0.0 1.0 0.00 0.00 0.00 70 1016.6
20260906162727 85 316 3.0 3.0 0.00 0.00 0.00 71 1016.8
20260906162222 85 281 1.0 1.0 0.00 0.00 0.00 72 1016.7
20260906161717 84 212 4.0 5.0 0.00 0.00 0.00 72 1016.8
20260906161216 84 206 4.0 5.0 0.00 0.00 0.00 73 1016.5
20260906160715 85 127 2.0 2.0 0.00 0.00 0.00 72 1016.5
20260906160214 85 213 3.0 3.0 0.00 0.00 0.00 72 1016.7
20260906155712 84 307 1.0 2.0 0.00 0.00 0.00 74 1016.4
20260906155207 84 249 2.0 2.0 0.00 0.00 0.00 73 1016.5
20260906154702 83 308 2.0 2.0 0.00 0.00 0.00 74 1016.2
20260906154157 83 188 5.0 6.0 0.00 0.00 0.00 74 1016.2
20260906153655 83 278 2.0 2.0 0.00 0.00 0.00 74 1016.3
20260906153150 83 239 3.0 3.0 0.00 0.00 0.00 75 1016.5
20260906152645 82 320 0.0 0.0 0.00 0.00 0.00 76 1015.9
20260906152139 82 277 1.0 1.0 0.00 0.00 0.00 77 1016.1
20260906151634 82 298 0.0 1.0 0.00 0.00 0.00 77 1015.9
20260906151130 82 225 4.0 6.0 0.00 0.00 0.00 78 1016.1
20260906150625 82 147 4.0 5.0 0.00 0.00 0.00 78 1015.8
20260906150120 82 261 2.0 2.0 0.00 0.00 0.00 78 1015.9
20260906145619 81 306 0.0 1.0 0.00 0.00 0.00 78 1015.8
20260906145114 81 237 3.0 3.0 0.00 0.00 0.00 78 1015.8
20260906144608 81 274 2.0 2.0 0.00 0.00 0.00 79 1015.9
20260906144104 81 259 4.0 5.0 0.00 0.00 0.00 79 1015.8
20260906143603 81 232 3.0 3.0 0.00 0.00 0.00 79 1016.1
20260906143100 81 216 3.0 3.0 0.00 0.00 0.00 78 1015.6
20260906142600 81 269 1.0 2.0 0.00 0.00 0.00 78 1015.6
20260906142055 81 282 1.0 1.0 0.00 0.00 0.00 78 1015.6
20260906141553 81 41 3.0 3.0 0.00 0.00 0.00 79 1015.5
20260906141049 81 330 0.0 0.0 0.00 0.00 0.00 79 1015.6
20260906140548 81 96 1.0 1.0 0.00 0.00 0.00 79 1015.5
20260906140043 81 5 1.0 2.0 0.00 0.00 0.00 78 1015.5
20260906135540 81 297 0.0 0.0 0.00 0.00 0.00 78 1015.4
20260906135037 80 310 0.0 0.0 0.00 0.00 0.00 79 1015.4
20260906134537 80 320 0.0 0.0 0.00 0.00 0.00 79 1015.4
20260906134031 80 284 0.0 1.0 0.00 0.00 0.00 79 1015.6
20260906133527 80 303 1.0 1.0 0.00 0.00 0.00 80 1015.3
20260906133023 80 295 0.0 0.0 0.00 0.00 0.00 81 1015.2
20260906132518 80 268 1.0 1.0 0.00 0.00 0.00 81 1015.5
20260906132013 80 286 1.0 1.0 0.00 0.00 0.00 81 1015.2
20260906131509 79 290 1.0 1.0 0.00 0.00 0.00 81 1015.1
20260906131004 79 270 2.0 2.0 0.00 0.00 0.00 81 1015.1
20260906130503 79 249 2.0 2.0 0.00 0.00 0.00 81 1014.8
20260906125958 79 283 0.0 0.0 0.00 0.00 0.00 81 1014.8
20260906125455 79 278 0.0 0.0 0.00 0.00 0.00 81 1014.9
20260906124955 79 280 0.0 0.0 0.00 0.00 0.00 82 1014.9
20260906124450 79 273 0.0 0.0 0.00 0.00 0.00 82 1014.9
20260906123945 79 265 0.0 0.0 0.00 0.00 0.00 82 1014.6
20260906123444 78 282 0.0 0.0 0.00 0.00 0.00 82 1014.6
20260906122939 78 271 0.0 0.0 0.00 0.00 0.00 82 1014.5
20260906122434 78 267 0.0 0.0 0.00 0.00 0.00 83 1014.4
20260906121931 78 271 0.0 0.0 0.00 0.00 0.00 82 1014.5
20260906121427 78 284 0.0 0.0 0.00 0.00 0.00 82 1014.2
20260906120923 79 276 0.0 0.0 0.00 0.00 0.00 82 1014.0
20260906120419 79 289 0.0 0.0 0.00 0.00 0.00 82 1014.1
20260906115914 78 293 0.0 0.0 0.00 0.00 0.00 82 1014.1
20260906115410 78 293 0.0 0.0 0.00 0.00 0.00 83 1013.9
20260906114909 78 293 0.0 0.0 0.00 0.00 0.00 82 1014.0
20260906114404 78 293 0.0 0.0 0.00 0.00 0.00 82 1013.9
20260906113900 78 293 0.0 0.0 0.00 0.00 0.00 82 1013.7
20260906113358 78 293 0.0 0.0 0.00 0.00 0.00 83 1013.8
20260906112854 78 293 0.0 0.0 0.00 0.00 0.00 82 1013.5
20260906112349 78 293 0.0 0.0 0.00 0.00 0.00 83 1013.4
20260906111843 78 293 0.0 0.0 0.00 0.00 0.00 82 1013.5
20260906111338 78 293 0.0 0.0 0.00 0.00 0.00 82 1013.4
20260906110833 78 293 0.0 0.0 0.00 0.00 0.00 82 1013.4
20260906110329 78 292 0.0 0.0 0.00 0.00 0.00 82 1013.3
20260906105827 78 291 1.0 1.0 0.00 0.00 0.00 82 1013.5
20260906105323 78 282 1.0 1.0 0.00 0.00 0.00 82 1013.4
20260906104819 78 266 2.0 2.0 0.00 0.00 0.00 82 1013.4
20260906104317 78 251 2.0 2.0 0.00 0.00 0.00 81 1013.5
20260906103816 78 267 2.0 2.0 0.00 0.00 0.00 82 1013.3
20260906103309 78 261 2.0 2.0 0.00 0.00 0.00 81 1013.2
20260906102805 79 254 3.0 3.0 0.00 0.00 0.00 81 1013.4
20260906102306 79 259 3.0 3.0 0.00 0.00 0.00 81 1013.4
20260906101759 79 279 2.0 3.0 0.00 0.00 0.00 81 1013.3
20260906101254 79 266 3.0 3.0 0.00 0.00 0.00 81 1013.3
20260906100749 79 290 2.0 3.0 0.00 0.00 0.00 81 1013.2
20260906100248 79 245 3.0 3.0 0.00 0.00 0.00 81 1013.1
20260906095744 79 247 4.0 5.0 0.00 0.00 0.00 81 1013.1
20260906095239 79 243 3.0 3.0 0.00 0.00 0.00 81 1013.1
20260906094733 79 258 3.0 3.0 0.00 0.00 0.00 81 1013.4
20260906094228 79 235 3.0 5.0 0.00 0.00 0.00 81 1013.1
20260906093724 79 244 2.0 3.0 0.00 0.00 0.00 81 1013.3
20260906093219 79 232 3.0 3.0 0.00 0.00 0.00 81 1013.4
20260906092715 79 238 3.0 3.0 0.00 0.00 0.00 81 1013.3
20260906092214 79 255 3.0 3.0 0.00 0.00 0.00 81 1013.3
20260906091710 79 260 3.0 3.0 0.00 0.00 0.00 80 1013.2
20260906091201 80 241 3.0 3.0 0.00 0.00 0.00 80 1013.3
20260906090657 80 231 3.0 5.0 0.00 0.00 0.00 80 1013.3
20260906090155 80 255 3.0 3.0 0.00 0.00 0.00 79 1013.1
20260906085655 80 237 3.0 3.0 0.00 0.00 0.00 79 1013.4
20260906085149 80 228 5.0 6.0 0.00 0.00 0.00 79 1013.3
20260906084644 80 188 4.0 5.0 0.00 0.00 0.00 79 1013.1
20260906084143 80 207 5.0 7.0 0.00 0.00 0.00 78 1013.0
20260906083638 80 249 5.0 6.0 0.00 0.00 0.00 78 1013.3
20260906083133 81 238 6.0 7.0 0.00 0.00 0.00 78 1013.2
20260906082629 81 218 6.0 7.0 0.00 0.00 0.00 78 1013.3
20260906082124 81 218 5.0 8.0 0.00 0.00 0.00 78 1013.4
20260906081620 81 208 6.0 8.0 0.00 0.00 0.00 78 1013.1
20260906081115 81 231 7.0 8.0 0.00 0.00 0.00 78 1013.0
20260906080612 81 208 5.0 6.0 0.00 0.00 0.00 78 1013.3
20260906080108 81 183 5.0 6.0 0.00 0.00 0.00 78 1013.2
20260906075607 81 218 6.0 8.0 0.00 0.00 0.00 78 1013.4
20260906075101 81 213 9.0 10.0 0.00 0.00 0.00 77 1013.5
20260906074556 81 201 9.0 11.0 0.00 0.00 0.00 77 1013.6
20260906074049 82 242 6.0 7.0 0.00 0.00 0.00 77 1013.7
20260906073544 82 230 9.0 11.0 0.00 0.00 0.00 77 1013.5
20260906073040 82 205 6.0 7.0 0.00 0.00 0.00 77 1013.7
20260906072535 82 220 8.0 9.0 0.00 0.00 0.00 77 1013.7
20260906072031 82 212 8.0 10.0 0.00 0.00 0.00 77 1013.7
20260906071527 82 212 9.0 13.0 0.00 0.00 0.00 77 1014.0
20260906071017 82 206 5.0 6.0 0.00 0.00 0.00 76 1014.0
20260906070513 82 235 7.0 7.0 0.00 0.00 0.00 76 1014.1
20260906070008 82 142 7.0 8.0 0.00 0.00 0.00 76 1014.2
20260906065508 82 216 7.0 10.0 0.00 0.00 0.00 76 1014.2
20260906065003 82 244 5.0 7.0 0.00 0.00 0.00 76 1014.1
20260906064459 82 212 5.0 7.0 0.00 0.00 0.00 75 1014.3
20260906063954 83 216 8.0 9.0 0.00 0.00 0.00 75 1014.2
20260906063449 83 185 7.0 9.0 0.00 0.00 0.00 75 1014.1
20260906062944 83 209 8.0 9.0 0.00 0.00 0.00 75 1014.1
20260906062439 83 197 8.0 9.0 0.00 0.00 0.00 75 1014.2
20260906061934 83 227 9.0 10.0 0.00 0.00 0.00 74 1014.2
20260906061430 83 195 7.0 9.0 0.00 0.00 0.00 74 1014.3
20260906060924 83 200 7.0 9.0 0.00 0.00 0.00 74 1014.3
20260906060421 83 209 8.0 9.0 0.00 0.00 0.00 73 1014.4
20260906055917 83 173 6.0 7.0 0.00 0.00 0.00 73 1014.6
20260906055413 83 221 9.0 10.0 0.00 0.00 0.00 73 1014.5
20260906054908 83 212 6.0 8.0 0.00 0.00 0.00 73 1014.5
20260906054403 83 178 5.0 7.0 0.00 0.00 0.00 73 1014.3
20260906053859 84 234 7.0 7.0 0.00 0.00 0.00 73 1014.3
20260906053354 84 192 6.0 7.0 0.00 0.00 0.00 73 1014.2
20260906052850 84 210 7.0 7.0 0.00 0.00 0.00 72 1014.4
20260906052346 84 213 7.0 8.0 0.00 0.00 0.00 72 1014.3
20260906051843 84 172 7.0 8.0 0.00 0.00 0.00 72 1014.4
20260906051343 84 204 5.0 6.0 0.00 0.00 0.00 72 1014.3
20260906050838 84 162 6.0 8.0 0.00 0.00 0.00 72 1014.4
20260906050333 84 190 11.0 11.0 0.00 0.00 0.00 71 1014.5
20260906045832 84 190 4.0 7.0 0.00 0.00 0.00 71 1014.6
20260906045326 84 203 8.0 9.0 0.00 0.00 0.00 71 1014.7
20260906044822 84 189 6.0 9.0 0.00 0.00 0.00 70 1014.5
20260906044316 85 193 7.0 8.0 0.00 0.00 0.00 70 1014.5
20260906043812 85 194 8.0 9.0 0.00 0.00 0.00 70 1014.4
20260906043308 85 206 5.0 6.0 0.00 0.00 0.00 69 1014.6
20260906042803 85 192 5.0 6.0 0.00 0.00 0.00 69 1014.5
20260906042306 85 196 8.0 10.0 0.00 0.00 0.00 68 1014.5
20260906041758 85 213 6.0 7.0 0.00 0.00 0.00 68 1014.6
20260906041253 85 197 5.0 6.0 0.00 0.00 0.00 67 1014.2
20260906040748 85 187 5.0 6.0 0.00 0.00 0.00 67 1014.3
20260906040243 85 175 3.0 6.0 0.00 0.00 0.00 67 1014.4
20260906035738 85 184 5.0 6.0 0.00 0.00 0.00 67 1014.3
20260906035229 85 117 6.0 7.0 0.00 0.00 0.00 66 1014.4
20260906034728 85 78 5.0 7.0 0.00 0.00 0.00 66 1014.3
20260906034223 85 128 9.0 11.0 0.00 0.00 0.00 66 1014.5
20260906033719 86 149 3.0 5.0 0.00 0.00 0.00 65 1014.3
20260906033218 86 93 10.0 13.0 0.00 0.00 0.00 65 1014.3
20260906032716 86 139 8.0 11.0 0.00 0.00 0.00 64 1014.3
20260906032215 86 100 5.0 10.0 0.00 0.00 0.00 64 1014.1
20260906031710 86 121 7.0 8.0 0.00 0.00 0.00 63 1014.1
20260906031206 86 124 8.0 9.0 0.00 0.00 0.00 63 1014.1
20260906030706 87 312 4.0 7.0 0.00 0.00 0.00 63 1014.1
20260906030200 87 96 7.0 10.0 0.00 0.00 0.00 62 1013.8
20260906025659 87 305 3.0 5.0 0.00 0.00 0.00 61 1013.7
20260906025154 87 119 10.0 15.0 0.00 0.00 0.00 60 1013.7
20260906024649 87 137 10.0 13.0 0.00 0.00 0.00 60 1013.6
20260906024148 88 80 9.0 10.0 0.00 0.00 0.00 60 1013.5
20260906023644 88 55 6.0 9.0 0.00 0.00 0.00 59 1013.2
20260906023143 88 39 2.0 3.0 0.00 0.00 0.00 59 1013.3
20260906022638 88 79 4.0 6.0 0.00 0.00 0.00 59 1013.2
20260906022135 88 139 6.0 9.0 0.00 0.00 0.00 59 1013.0
20260906021630 88 98 9.0 13.0 0.00 0.00 0.00 59 1012.9
20260906021128 89 145 7.0 10.0 0.00 0.00 0.00 58 1012.4
20260906020623 89 200 9.0 11.0 0.00 0.00 0.00 58 1012.5
20260906020118 89 97 6.0 9.0 0.00 0.00 0.00 58 1012.4
20260906015613 89 139 7.0 10.0 0.00 0.00 0.00 58 1012.3
20260906015111 89 98 8.0 11.0 0.00 0.00 0.00 58 1012.4
20260906014606 89 184 6.0 10.0 0.00 0.00 0.00 57 1012.4
20260906014103 90 130 6.0 8.0 0.00 0.00 0.00 57 1012.3
20260906013557 90 159 11.0 15.0 0.00 0.00 0.00 56 1012.2
20260906013053 90 142 8.0 9.0 0.00 0.00 0.00 55 1012.2
20260906012548 91 148 7.0 9.0 0.00 0.00 0.00 55 1012.3
20260906012047 91 149 11.0 14.0 0.00 0.00 0.00 54 1012.1
20260906011544 92 134 12.0 16.0 0.00 0.00 0.00 52 1012.1
20260906011043 92 202 5.0 8.0 0.00 0.00 0.00 51 1012.1
20260906010539 92 163 7.0 8.0 0.00 0.00 0.00 50 1011.9
20260906010035 92 182 6.0 7.0 0.00 0.00 0.00 50 1011.8
20260906005534 92 138 6.0 8.0 0.00 0.00 0.00 50 1012.1
20260906005032 93 88 6.0 8.0 0.00 0.00 0.00 49 1011.9
20260906004526 93 84 8.0 13.0 0.00 0.00 0.00 49 1011.9
20260906004021 93 144 8.0 13.0 0.00 0.00 0.00 49 1011.6
20260906003516 94 73 3.0 6.0 0.00 0.00 0.00 47 1011.9
20260906003012 94 130 2.0 5.0 0.00 0.00 0.00 44 1011.9
20260906002507 94 127 3.0 5.0 0.00 0.00 0.00 43 1012.1
20260906002002 95 231 4.0 7.0 0.00 0.00 0.00 43 1011.8
20260906001458 94 146 5.0 6.0 0.00 0.00 0.00 43 1011.8
20260906000952 94 139 7.0 9.0 0.00 0.00 0.00 43 1011.7
20260906000448 95 172 6.0 7.0 0.00 0.00 0.00 43 1011.7
20260905235948 95 157 5.0 7.0 0.00 0.00 0.00 43 1011.7
20260905235442 96 88 5.0 6.0 0.00 0.00 0.00 42 1011.7
20260905234937 97 30 1.0 1.0 0.00 0.00 0.00 41 1011.8
20260905234432 96 122 3.0 6.0 0.00 0.00 0.00 40 1011.7
20260905233927 97 117 3.0 3.0 0.00 0.00 0.00 40 1011.8
20260905233422 99 140 2.0 2.0 0.00 0.00 0.00 38 1011.5
20260905232920 98 303 1.0 1.0 0.00 0.00 0.00 39 1011.6
20260905232417 97 119 3.0 5.0 0.00 0.00 0.00 40 1011.8
20260905231907 96 193 5.0 6.0 0.00 0.00 0.00 40 1011.8
20260905231402 97 114 2.0 3.0 0.00 0.00 0.00 39 1011.8
20260905230859 96 93 3.0 6.0 0.00 0.00 0.00 39 1011.9
20260905230356 98 71 4.0 5.0 0.00 0.00 0.00 38 1011.7
20260905225850 98 306 3.0 3.0 0.00 0.00 0.00 38 1011.7
20260905225345 97 89 3.0 3.0 0.00 0.00 0.00 39 1011.6
20260905224840 97 353 2.0 2.0 0.00 0.00 0.00 39 1011.5
20260905224335 98 93 3.0 5.0 0.00 0.00 0.00 38 1011.7
20260905223830 98 18 3.0 3.0 0.00 0.00 0.00 39 1011.8
20260905223328 96 273 2.0 2.0 0.00 0.00 0.00 40 1011.7
20260905222823 96 237 2.0 3.0 0.00 0.00 0.00 40 1011.9
20260905222321 95 86 3.0 5.0 0.00 0.00 0.00 42 1012.0
20260905221818 95 335 1.0 1.0 0.00 0.00 0.00 42 1011.9
20260905221314 97 116 3.0 3.0 0.00 0.00 0.00 41 1012.2
20260905220804 97 41 3.0 3.0 0.00 0.00 0.00 40 1012.0
20260905220300 98 58 5.0 8.0 0.00 0.00 0.00 40 1011.8
20260905215759 97 76 6.0 10.0 0.00 0.00 0.00 40 1011.9
20260905215255 98 65 1.0 2.0 0.00 0.00 0.00 39 1011.7
20260905214750 98 303 1.0 1.0 0.00 0.00 0.00 40 1012.1
20260905214246 96 286 1.0 1.0 0.00 0.00 0.00 40 1012.0
20260905213741 95 67 3.0 5.0 0.00 0.00 0.00 41 1011.9
20260905213238 96 131 2.0 3.0 0.00 0.00 0.00 41 1012.1
20260905212733 97 304 1.0 2.0 0.00 0.00 0.00 39 1012.0
20260905212232 98 294 3.0 5.0 0.00 0.00 0.00 40 1011.9
20260905211731 98 236 2.0 2.0 0.00 0.00 0.00 37 1011.9
20260905211227 96 284 2.0 3.0 0.00 0.00 0.00 40 1012.1
20260905210724 95 235 4.0 6.0 0.00 0.00 0.00 41 1012.1
20260905210223 96 183 6.0 8.0 0.00 0.00 0.00 40 1012.2
20260905205722 99 228 5.0 6.0 0.00 0.00 0.00 37 1012.4
20260905205216 96 300 1.0 1.0 0.00 0.00 0.00 41 1012.7
20260905204710 96 317 5.0 6.0 0.00 0.00 0.00 40 1012.6
20260905204206 95 251 2.0 2.0 0.00 0.00 0.00 42 1012.6
20260905203700 96 250 3.0 5.0 0.00 0.00 0.00 42 1012.7
20260905203155 98 139 6.0 7.0 0.00 0.00 0.00 40 1013.0
20260905202650 97 171 3.0 3.0 0.00 0.00 0.00 40 1012.9
20260905202146 97 320 2.0 3.0 0.00 0.00 0.00 41 1012.7
20260905201641 94 292 3.0 3.0 0.00 0.00 0.00 43 1013.0
20260905201136 95 175 5.0 6.0 0.00 0.00 0.00 44 1013.1
20260905200631 95 327 0.0 1.0 0.00 0.00 0.00 42 1013.1
20260905200126 97 40 2.0 2.0 0.00 0.00 0.00 41 1013.3
20260905195619 95 32 5.0 7.0 0.00 0.00 0.00 42 1013.4
20260905195114 96 61 4.0 6.0 0.00 0.00 0.00 42 1013.4
20260905194609 96 199 3.0 3.0 0.00 0.00 0.00 43 1013.6
20260905194108 97 183 5.0 7.0 0.00 0.00 0.00 43 1013.8
20260905193603 95 251 8.0 10.0 0.00 0.00 0.00 44 1013.6
20260905193058 93 205 6.0 7.0 0.00 0.00 0.00 46 1013.9
20260905192554 94 273 3.0 3.0 0.00 0.00 0.00 46 1014.2
20260905192050 94 195 10.0 10.0 0.00 0.00 0.00 46 1014.1
20260905191548 93 321 3.0 3.0 0.00 0.00 0.00 47 1014.1
20260905191047 95 228 5.0 6.0 0.00 0.00 0.00 47 1014.0
20260905190546 95 28 3.0 5.0 0.00 0.00 0.00 45 1014.4
20260905190045 94 74 1.0 5.0 0.00 0.00 0.00 47 1014.2
20260905185544 95 93 2.0 3.0 0.00 0.00 0.00 47 1014.5
20260905185038 95 72 2.0 2.0 0.00 0.00 0.00 47 1014.5
20260905184533 93 60 1.0 2.0 0.00 0.00 0.00 49 1014.6
20260905184031 93 68 3.0 5.0 0.00 0.00 0.00 49 1014.9